#timestamp,LO_Frequency,Hit,StdDev 
1503356415.1,286047001.1,N,1.1
1503356416.0,286047001.1,N,1.1
1503356435.8,286047000.4,N,1.1
1503356455.6,286047000.6,N,1.2
1503356475.5,286047000.7,N,1.2
1503356495.3,286047001.0,N,1.2
1503356515.2,286047000.7,N,1.2
1503356535.9,286047000.3,N,1.2
1503356555.7,286047002.7,N,1.3
1503356575.6,286047002.5,N,1.4
1503356595.4,286047002.6,N,1.5
1503356615.2,286047002.7,N,1.5
1503356635.1,286047001.3,N,1.5
1503356636.0,286047001.3,N,1.5
1503356655.8,286047001.8,N,1.5
1503356675.7,286047004.2,N,1.5
1503356695.5,286047003.7,N,1.5
1503356715.3,286047003.2,N,1.5
1503356735.2,286047003.7,N,1.4
1503356755.0,286047002.2,N,1.3
1503356755.9,286047002.2,N,1.4
1503356775.8,286047000.2,N,1.4
1503356795.6,286047002.3,N,1.4
1503356815.4,286046999.8,N,1.4
1503356835.3,286047000.0,N,1.4
1503356855.1,286047000.1,N,1.4
1503356875.8,286047000.0,N,1.4
1503356895.7,286047000.3,N,1.3
1503356915.5,286047000.0,N,1.3
1503356935.4,286047002.8,N,1.3
1503356955.2,286046999.8,N,1.3
1503356975.0,286047001.9,N,1.3
1503356975.9,286047001.9,N,1.3
1503356995.8,286047002.1,N,1.3
1503357015.6,286047002.8,N,1.3
1503357035.5,286047004.4,Y,0.0
1503357055.3,286047002.6,P,0.5
1503357075.1,286046999.8,N,1.2
1503357095.9,286047002.4,N,1.1
1503357115.7,286047000.0,N,1.2
1503357135.5,286047000.4,N,1.1
1503357155.4,286047000.1,N,1.1
1503357175.2,286046999.7,N,1.1
1503357195.1,286047000.5,N,1.1
1503357196.0,286047000.5,N,1.0
1503357215.8,286047000.9,N,1.0
1503357235.6,286047000.4,N,0.9
1503357255.5,286047000.6,N,0.9
1503357275.3,286047001.0,N,0.9
1503357295.2,286047000.2,N,0.8
1503357315.9,286047000.2,N,0.8
1503357335.7,286047000.3,N,0.8
1503357355.6,286046999.8,N,0.8
1503357375.4,286047000.5,N,0.8
1503357395.2,286046999.9,N,0.8
1503357415.1,286047001.0,N,0.8
1503357416.0,286047001.0,N,0.8
1503357435.8,286046998.4,N,0.9
1503357455.7,286046998.7,N,0.9
1503357475.5,286046998.7,N,1.0
1503357495.3,286046999.1,N,1.0
1503357515.2,286046999.3,N,1.0
1503357535.0,286046998.4,N,1.0
1503357535.9,286046998.4,N,1.1
1503357555.8,286046998.7,N,1.1
1503357575.6,286046998.4,N,1.1
1503357595.4,286046998.8,N,1.0
1503357615.3,286046998.7,N,1.0
1503357635.1,286047001.1,N,0.9
1503357655.8,286046998.9,N,0.9
1503357675.7,286046999.2,N,0.9
1503357695.5,286046999.4,N,0.9
1503357715.4,286047001.2,N,1.0
1503357735.2,286047001.0,N,1.0
1503357755.0,286047000.5,N,1.0
1503357756.0,286047000.5,N,1.0
1503357775.8,286047000.9,N,1.0
1503357795.6,286046999.9,N,1.0
1503357815.5,286047000.0,N,0.9
1503357835.3,286047000.8,N,1.0
1503357855.1,286046998.6,N,1.0
1503357875.9,286046999.8,N,1.0
1503357895.7,286047002.8,N,1.1
1503357915.6,286047002.5,N,1.2
1503357935.4,286047002.3,N,1.3
1503357955.2,286046999.8,N,1.3
1503357975.1,286047000.2,N,1.3
1503357976.0,286047000.2,N,1.2
1503357995.8,286047000.2,N,1.2
1503358015.7,286047000.3,N,1.2
1503358035.5,286047000.1,N,1.2
1503358055.3,286047002.8,N,1.3
1503358075.2,286047002.7,N,1.3
1503358095.0,286047000.3,N,1.3
1503358095.9,286047000.3,N,1.2
1503358115.8,286047002.4,N,1.2
1503358135.6,286047001.6,N,1.2
1503358155.4,286047002.4,N,1.2
1503358175.3,286047002.4,N,1.2
1503358195.1,286047001.6,N,1.2
1503358215.9,286047002.1,N,1.1
1503358235.7,286047002.3,N,1.1
1503358255.5,286047000.1,N,1.1
1503358275.4,286047000.1,N,1.2
1503358295.2,286047000.8,N,1.2
1503358315.0,286046999.8,N,1.2
1503358315.9,286046999.8,N,1.2
1503358335.8,286047002.6,N,1.2
1503358355.6,286047002.6,N,1.2
1503358375.5,286047002.0,N,1.2
1503358395.3,286047002.0,N,1.1
1503358415.1,286047001.7,N,1.1
1503358435.9,286047001.3,N,1.1
1503358455.7,286047001.4,N,1.1
1503358475.6,286047004.0,Y,0.0
1503358495.4,286047000.0,P,0.6
1503358515.2,286047000.2,N,0.6
1503358535.1,286047000.2,N,0.5
1503358536.0,286047000.2,N,0.5
1503358555.8,286047000.4,N,0.4
1503358575.6,286047000.0,N,0.4
1503358595.5,286047000.7,N,0.4
1503358615.3,286047001.1,N,0.4
1503358635.2,286046999.3,N,0.5
1503358655.9,286046999.2,N,0.6
1503358675.7,286046998.8,N,0.7
1503358695.6,286046999.6,N,0.7
1503358715.4,286046996.7,Y,0.0
1503358735.3,286046996.7,P,1.7
1503358755.1,286046997.2,N,1.5
1503358756.0,286046997.2,N,1.3
1503358775.8,286046995.4,Y,0.0
1503358795.7,286046996.6,P,0.6
1503358815.5,286046997.4,P,0.5
1503358835.4,286046994.9,P,1.1
1503358855.2,286046995.4,Y,0.0
1503358875.0,286046999.4,P,1.4
1503358875.9,286046999.4,N,1.3
1503358895.8,286046998.4,N,1.1
1503358915.6,286047001.1,N,1.4
1503358935.5,286046998.3,N,1.3
1503358955.3,286046999.0,N,1.2
1503358975.1,286046999.2,N,1.2
1503358995.9,286046998.8,N,1.1
1503359015.7,286046998.7,N,1.1
1503359035.5,286046998.5,N,1.0
1503359055.4,286046998.2,N,1.0
1503359075.2,286046998.8,N,0.9
1503359095.1,286046998.3,N,0.9
1503359096.0,286046998.3,N,0.9
1503359115.8,286047001.1,N,1.0
1503359135.6,286047000.8,N,1.1
1503359155.5,286046998.1,N,1.1
1503359175.3,286047001.0,N,1.2
1503359195.2,286047001.2,N,1.2
1503359215.9,286046998.3,N,1.2
1503359235.7,286046998.3,N,1.2
1503359255.6,286046998.6,N,1.2
1503359275.4,286046998.1,N,1.2
1503359295.2,286047000.9,N,1.2
1503359315.1,286046998.4,N,1.2
1503359316.0,286046998.4,N,1.2
1503359335.8,286047001.1,N,1.2
1503359355.7,286047000.1,N,1.2
1503359375.5,286047000.1,N,1.2
1503359395.3,286047000.6,N,1.1
1503359415.2,286046998.1,N,1.1
1503359435.0,286047000.4,N,1.2
1503359435.9,286047000.4,N,1.2
1503359455.8,286047002.8,N,1.3
1503359475.6,286047002.8,N,1.4
1503359495.4,286047004.4,Y,0.0
1503359515.3,286047002.6,P,1.5
1503359535.1,286047004.3,N,2.0
1503359555.8,286047011.9,P,4.5
1503359575.7,286047002.6,N,4.1
1503359595.5,286047002.0,N,3.9
1503359615.4,286047001.4,N,3.7
1503359635.2,286047003.9,N,3.4
1503359655.0,286047001.4,N,3.3
1503359655.9,286047001.4,N,3.2
1503359675.8,286047004.3,N,3.1
1503359695.6,286047004.3,N,3.0
1503359715.5,286047001.6,N,2.9
1503359735.3,286047002.1,N,2.8
1503359755.1,286047001.6,N,2.7
1503359775.9,286047001.7,N,2.6
1503359795.7,286047004.3,N,2.6
1503359815.5,286047004.0,N,2.5
1503359835.4,286047001.8,N,2.5
1503359855.2,286047001.4,N,2.4
1503359875.1,286047001.4,N,2.4
1503359876.0,286047001.4,N,2.4
1503359895.8,286047001.3,N,2.3
1503359915.6,286047002.3,N,2.3
1503359935.5,286047001.7,N,2.2
1503359955.3,286047004.2,N,2.2
1503359975.2,286047003.6,N,2.2
1503359995.9,286047003.9,N,2.2
